• In Moldova, Republic
  • List of Countries
  • For 7 days
  • Water Temperature
  • Satellite Maps
  • Weather Map
  • Weather Widgets
  • user-avatar
    Login

    Hourly Weather Saurimo

    Today, 30 April, Sunday

    Time Temperature Precipitation Wind Pressure Humidity
    00:00 +19°C° 0 mm 2 mps 671 mmHg 71%
    01:00 +20°C° 0 mm 1 mps 671 mmHg 71%
    02:00 +19°C° 0 mm 2 mps 671 mmHg 72%
    03:00 +18°C° 0 mm 2 mps 671 mmHg 73%
    04:00 +18°C° 0 mm 2 mps 671 mmHg 73%
    05:00 +18°C° 0 mm 2 mps 671 mmHg 74%
    06:00 +19°C° 0 mm 2 mps 672 mmHg 74%
    07:00 +19°C° 0 mm 2 mps 672 mmHg 75%
    08:00 +21°C° 0 mm 3 mps 673 mmHg 69%
    09:00 +25°C° 0 mm 3 mps 673 mmHg 63%
    10:00 +27°C° 0 mm 3 mps 674 mmHg 57%
    11:00 +27°C° 0 mm 3 mps 673 mmHg 54%
    12:00 +28°C° 0 mm 3 mps 673 mmHg 51%
    13:00 +29°C° 0 mm 2 mps 672 mmHg 47%
    14:00 +29°C° 0 mm 2 mps 672 mmHg 50%
    15:00 +28°C° 0 mm 2 mps 671 mmHg 53%
    16:00 +28°C° 0 mm 1 mps 671 mmHg 56%
    17:00 +26°C° 0 mm 1 mps 671 mmHg 61%
    18:00 +24°C° 0 mm 1 mps 671 mmHg 66%
    19:00 +22°C° 0 mm 1 mps 671 mmHg 71%
    20:00 +22°C° 0 mm 1 mps 671 mmHg 72%
    21:00 +21°C° 0 mm 1 mps 671 mmHg 74%
    22:00 +21°C° 0 mm 1 mps 672 mmHg 75%
    23:00 +20°C° 0 mm 1 mps 671 mmHg 75%

    Tomorrow, 1 May, Monday

    Time Temperature Precipitation Wind Pressure Humidity
    00:00 +20°C° 0 mm 1 mps 671 mmHg 76%
    01:00 +18°C° 0 mm 2 mps 671 mmHg 77%
    02:00 +18°C° 0 mm 2 mps 671 mmHg 76%
    03:00 +18°C° 0 mm 2 mps 670 mmHg 76%
    04:00 +17°C° 0 mm 2 mps 670 mmHg 76%
    05:00 +18°C° 0 mm 2 mps 671 mmHg 75%
    06:00 +18°C° 0 mm 2 mps 671 mmHg 75%
    07:00 +19°C° 0 mm 2 mps 672 mmHg 75%
    08:00 +21°C° 0 mm 3 mps 672 mmHg 68%
    09:00 +24°C° 0 mm 3 mps 673 mmHg 61%
    10:00 +27°C° 0 mm 4 mps 673 mmHg 54%
    11:00 +27°C° 0 mm 3 mps 673 mmHg 51%
    12:00 +28°C° 0 mm 3 mps 672 mmHg 49%
    13:00 +29°C° 0 mm 2 mps 672 mmHg 46%
    14:00 +29°C° 0 mm 2 mps 671 mmHg 49%
    15:00 +28°C° 0 mm 2 mps 671 mmHg 52%
    16:00 +28°C° 0 mm 1 mps 671 mmHg 55%
    17:00 +26°C° 0 mm 1 mps 671 mmHg 60%
    18:00 +24°C° 0 mm 2 mps 671 mmHg 65%
    19:00 +21°C° 0 mm 2 mps 671 mmHg 70%
    20:00 +21°C° 0 mm 2 mps 671 mmHg 71%
    21:00 +20°C° 0 mm 2 mps 671 mmHg 71%
    22:00 +20°C° 0 mm 2 mps 671 mmHg 72%
    23:00 +19°C° 0 mm 2 mps 671 mmHg 72%

    Day after tomorrow, 2 May, Tuesday

    Time Temperature Precipitation Wind Pressure Humidity
    00:00 +19°C° 0 mm 2 mps 671 mmHg 73%
    01:00 +19°C° 0 mm 1 mps 670 mmHg 73%
    02:00 +18°C° 0 mm 2 mps 670 mmHg 74%
    03:00 +18°C° 0 mm 2 mps 670 mmHg 75%
    04:00 +17°C° 0 mm 2 mps 670 mmHg 75%
    05:00 +18°C° 0 mm 2 mps 670 mmHg 75%
    06:00 +18°C° 0 mm 3 mps 671 mmHg 74%
    07:00 +19°C° 0 mm 3 mps 672 mmHg 73%
    08:00 +21°C° 0 mm 3 mps 672 mmHg 67%
    09:00 +24°C° 0 mm 3 mps 673 mmHg 61%
    10:00 +27°C° 0 mm 4 mps 673 mmHg 54%
    11:00 +27°C° 0 mm 3 mps 673 mmHg 52%
    12:00 +28°C° 0 mm 3 mps 672 mmHg 49%
    13:00 +29°C° 0 mm 3 mps 671 mmHg 46%
    14:00 +29°C° 0 mm 2 mps 671 mmHg 49%
    15:00 +29°C° 0 mm 2 mps 671 mmHg 52%
    16:00 +28°C° 0 mm 1 mps 670 mmHg 54%
    17:00 +26°C° 0 mm 1 mps 670 mmHg 59%
    18:00 +24°C° 0 mm 1 mps 670 mmHg 64%
    19:00 +22°C° 0 mm 1 mps 670 mmHg 69%
    20:00 +22°C° 0 mm 1 mps 671 mmHg 70%
    21:00 +21°C° 0 mm 1 mps 671 mmHg 71%
    22:00 +21°C° 0 mm 1 mps 671 mmHg 72%
    23:00 +20°C° 0 mm 1 mps 671 mmHg 72%

    3 May, Wednesday

    Time Temperature Precipitation Wind Pressure Humidity
    00:00 +19°C° 0 mm 2 mps 670 mmHg 72%
    01:00 +19°C° 0 mm 2 mps 670 mmHg 72%
    02:00 +18°C° 0 mm 2 mps 670 mmHg 72%
    03:00 +18°C° 0 mm 2 mps 670 mmHg 72%
    04:00 +17°C° 0 mm 2 mps 670 mmHg 72%
    05:00 +18°C° 0 mm 2 mps 670 mmHg 72%
    06:00 +18°C° 0 mm 3 mps 671 mmHg 72%
    07:00 +19°C° 0 mm 3 mps 672 mmHg 72%
    08:00 +21°C° 0 mm 3 mps 672 mmHg 66%
    09:00 +24°C° 0 mm 3 mps 672 mmHg 60%
    10:00 +27°C° 0 mm 3 mps 673 mmHg 54%
    11:00 +27°C° 0 mm 3 mps 672 mmHg 51%
    12:00 +28°C° 0 mm 3 mps 672 mmHg 48%
    13:00 +29°C° 0 mm 3 mps 671 mmHg 45%
    14:00 +29°C° 0 mm 2 mps 671 mmHg 48%
    15:00 +29°C° 0 mm 2 mps 670 mmHg 50%
    16:00 +29°C° 0 mm 1 mps 670 mmHg 53%
    17:00 +27°C° 0 mm 1 mps 670 mmHg 58%
    18:00 +24°C° 0 mm 1 mps 670 mmHg 63%
    19:00 +22°C° 0 mm 1 mps 670 mmHg 68%
    20:00 +22°C° 0 mm 1 mps 670 mmHg 69%
    21:00 +21°C° 0 mm 1 mps 670 mmHg 69%
    22:00 +21°C° 0 mm 1 mps 671 mmHg 69%
    23:00 +20°C° 0 mm 2 mps 670 mmHg 69%

    4 May, Thursday

    Time Temperature Precipitation Wind Pressure Humidity
    00:00 +19°C° 0 mm 2 mps 670 mmHg 69%
    01:00 +19°C° 0 mm 2 mps 670 mmHg 69%
    02:00 +18°C° 0 mm 2 mps 670 mmHg 69%
    03:00 +18°C° 0 mm 2 mps 670 mmHg 70%
    04:00 +17°C° 0 mm 2 mps 670 mmHg 70%
    05:00 +18°C° 0 mm 2 mps 670 mmHg 70%
    06:00 +18°C° 0 mm 3 mps 671 mmHg 70%
    07:00 +18°C° 0 mm 3 mps 671 mmHg 70%
    08:00 +21°C° 0 mm 3 mps 672 mmHg 63%
    09:00 +24°C° 0 mm 3 mps 672 mmHg 56%
    10:00 +27°C° 0 mm 3 mps 673 mmHg 49%
    11:00 +28°C° 0 mm 3 mps 672 mmHg 46%
    12:00 +29°C° 0 mm 3 mps 672 mmHg 43%
    13:00 +30°C° 0 mm 2 mps 671 mmHg 40%
    14:00 +29°C° 0 mm 2 mps 671 mmHg 43%
    15:00 +29°C° 0 mm 1 mps 670 mmHg 46%
    16:00 +29°C° 0 mm 1 mps 670 mmHg 49%
    17:00 +27°C° 0 mm 1 mps 670 mmHg 54%
    18:00 +24°C° 0 mm 1 mps 670 mmHg 58%
    19:00 +22°C° 0 mm 1 mps 670 mmHg 63%
    20:00 +22°C° 0 mm 1 mps 670 mmHg 64%
    21:00 +21°C° 0 mm 1 mps 670 mmHg 65%
    22:00 +21°C° 0 mm 1 mps 670 mmHg 67%
    23:00 +20°C° 0 mm 1 mps 670 mmHg 67%

    5 May, Friday

    Time Temperature Precipitation Wind Pressure Humidity
    00:00 +20°C° 0 mm 1 mps 670 mmHg 68%
    01:00 +19°C° 0 mm 2 mps 670 mmHg 68%
    02:00 +18°C° 0 mm 2 mps 670 mmHg 69%
    03:00 +18°C° 0 mm 2 mps 670 mmHg 69%
    04:00 +18°C° 0 mm 2 mps 670 mmHg 69%
    05:00 +18°C° 0 mm 2 mps 670 mmHg 69%
    06:00 +18°C° 0 mm 3 mps 671 mmHg 69%
    07:00 +18°C° 0 mm 3 mps 671 mmHg 69%
    08:00 +21°C° 0 mm 3 mps 672 mmHg 63%
    09:00 +24°C° 0 mm 3 mps 672 mmHg 56%
    10:00 +27°C° 0 mm 3 mps 673 mmHg 50%
    11:00 +28°C° 0 mm 3 mps 672 mmHg 48%
    12:00 +29°C° 0 mm 3 mps 671 mmHg 45%
    13:00 +30°C° 0 mm 3 mps 671 mmHg 43%
    14:00 +29°C° 0 mm 2 mps 670 mmHg 46%
    15:00 +29°C° 0 mm 2 mps 670 mmHg 49%
    16:00 +29°C° 0 mm 1 mps 670 mmHg 52%
    17:00 +27°C° 0 mm 1 mps 670 mmHg 57%
    18:00 +25°C° 0 mm 1 mps 670 mmHg 62%
    19:00 +23°C° 0 mm 1 mps 670 mmHg 67%
    20:00 +22°C° 0 mm 1 mps 670 mmHg 68%
    21:00 +22°C° 0 mm 1 mps 671 mmHg 69%
    22:00 +21°C° 0 mm 1 mps 671 mmHg 70%
    23:00 +20°C° 0 mm 2 mps 670 mmHg 70%
    Show more